TJS-9

Last updated on Tue Oct 15 2024 00:02:42 GMT+0000 (Coordinated Universal Time)

1 50574U 21135A 24288.51786094 -.00000301 00000+0 00000+0 0 9990 2 50574 0.0164 35.0199 0000809 242.1084 70.0831 1.00269672 10305
UTC large
Height (km)
Speed (km/s)
/
Latitude / Longitude
Inclination (degrees)
Orbital Period (minutes)
Azimuth
Elevation
Range (km)
Doppler Factor

Next 0 passes for location: London (51.5072 / 0.1276)

Sorry there are no passes over London.